When you browse on this site, cookies collect data to enhance your experience and personalize the content and advertising you see.
Visit our Privacy Policy to learn more. By continuing to use the site, you agree to this use of cookies and data.
  • In Hungary
  • List of Countries
  • For 7 days
  • Water Temperature
  • Weather Map
  • News
  • Weather Widgets
  • user-avatar
    Login

    Hourly Weather Bohicon

    Today, 12 November, Tuesday

    Time Temperature Precipitation Wind Pressure Humidity
    00:00 +26°C° 0 mm 2 mps 745 mmHg 91%
    01:00 +26°C° 0 mm 2 mps 744 mmHg 92%
    02:00 +26°C° 0 mm 2 mps 744 mmHg 94%
    03:00 +26°C° 0 mm 1 mps 744 mmHg 95%
    04:00 +26°C° 0.1 mm 1 mps 744 mmHg 95%
    05:00 +25°C° 0.1 mm 1 mps 744 mmHg 95%
    06:00 +25°C° 0.1 mm 1 mps 744 mmHg 95%
    07:00 +27°C° 0 mm 2 mps 745 mmHg 88%
    08:00 +29°C° 0 mm 2 mps 745 mmHg 80%
    09:00 +31°C° 0 mm 2 mps 745 mmHg 72%
    10:00 +32°C° 0 mm 2 mps 745 mmHg 66%
    11:00 +34°C° 0 mm 2 mps 745 mmHg 59%
    12:00 +36°C° 0 mm 2 mps 744 mmHg 53%
    13:00 +35°C° 0.3 mm 2 mps 743 mmHg 54%
    14:00 +35°C° 0.3 mm 2 mps 743 mmHg 55%
    15:00 +35°C° 0.3 mm 2 mps 742 mmHg 57%
    16:00 +32°C° 0.1 mm 2 mps 743 mmHg 65%
    17:00 +30°C° 0.1 mm 3 mps 743 mmHg 73%
    18:00 +28°C° 0.1 mm 3 mps 744 mmHg 81%
    19:00 +28°C° 0 mm 3 mps 744 mmHg 83%
    20:00 +28°C° 0 mm 2 mps 745 mmHg 86%
    21:00 +27°C° 0 mm 2 mps 745 mmHg 88%
    22:00 +27°C° 0 mm 2 mps 745 mmHg 89%
    23:00 +27°C° 0 mm 2 mps 745 mmHg 91%

    Tomorrow, 13 November, Wednesday

    Time Temperature Precipitation Wind Pressure Humidity
    00:00 +26°C° 0 mm 2 mps 745 mmHg 93%
    01:00 +26°C° 0 mm 1 mps 745 mmHg 93%
    02:00 +26°C° 0 mm 1 mps 744 mmHg 94%
    03:00 +26°C° 0 mm 1 mps 744 mmHg 95%
    04:00 +26°C° 0 mm 1 mps 744 mmHg 95%
    05:00 +24°C° 0 mm 0 mps 745 mmHg 95%
    06:00 +24°C° 0 mm 0 mps 745 mmHg 95%
    07:00 +27°C° 0 mm 1 mps 745 mmHg 87%
    08:00 +29°C° 0 mm 1 mps 745 mmHg 78%
    09:00 +31°C° 0 mm 2 mps 746 mmHg 70%
    10:00 +32°C° 0 mm 1 mps 745 mmHg 64%
    11:00 +34°C° 0 mm 1 mps 745 mmHg 58%
    12:00 +35°C° 0 mm 1 mps 744 mmHg 53%
    13:00 +35°C° 0.1 mm 1 mps 744 mmHg 54%
    14:00 +34°C° 0.1 mm 1 mps 743 mmHg 55%
    15:00 +35°C° 0.1 mm 2 mps 743 mmHg 56%
    16:00 +32°C° 0.7 mm 2 mps 743 mmHg 65%
    17:00 +30°C° 0.7 mm 2 mps 743 mmHg 74%
    18:00 +28°C° 0.7 mm 3 mps 744 mmHg 83%
    19:00 +28°C° 0.3 mm 2 mps 744 mmHg 85%
    20:00 +27°C° 0.3 mm 2 mps 745 mmHg 88%
    21:00 +27°C° 0.3 mm 2 mps 745 mmHg 90%
    22:00 +27°C° 0.1 mm 2 mps 745 mmHg 91%
    23:00 +26°C° 0.1 mm 1 mps 745 mmHg 91%

    Day after tomorrow, 14 November, Thursday

    Time Temperature Precipitation Wind Pressure Humidity
    00:00 +26°C° 0.1 mm 1 mps 745 mmHg 92%
    01:00 +26°C° 0.1 mm 1 mps 745 mmHg 92%
    02:00 +26°C° 0.1 mm 1 mps 744 mmHg 93%
    03:00 +26°C° 0.1 mm 1 mps 744 mmHg 93%
    04:00 +26°C° 0 mm 1 mps 745 mmHg 93%
    05:00 +26°C° 0 mm 1 mps 745 mmHg 93%
    06:00 +26°C° 0 mm 1 mps 745 mmHg 94%
    07:00 +27°C° 0 mm 1 mps 745 mmHg 87%
    08:00 +29°C° 0 mm 1 mps 746 mmHg 80%
    09:00 +31°C° 0 mm 1 mps 746 mmHg 73%
    10:00 +32°C° 0.2 mm 1 mps 746 mmHg 68%
    11:00 +33°C° 0.2 mm 1 mps 745 mmHg 64%
    12:00 +34°C° 0.2 mm 1 mps 745 mmHg 59%
    13:00 +33°C° 0.8 mm 1 mps 744 mmHg 61%
    14:00 +33°C° 0.8 mm 1 mps 744 mmHg 62%
    15:00 +34°C° 0.8 mm 2 mps 743 mmHg 63%
    16:00 +31°C° 0.2 mm 2 mps 743 mmHg 70%
    17:00 +30°C° 0.2 mm 2 mps 743 mmHg 76%
    18:00 +28°C° 0.2 mm 2 mps 744 mmHg 83%
    19:00 +28°C° 0.1 mm 2 mps 744 mmHg 84%
    20:00 +28°C° 0.1 mm 2 mps 745 mmHg 86%
    21:00 +27°C° 0.1 mm 2 mps 745 mmHg 88%
    22:00 +27°C° 0 mm 2 mps 745 mmHg 89%
    23:00 +27°C° 0 mm 2 mps 745 mmHg 91%

    15 November, Friday

    Time Temperature Precipitation Wind Pressure Humidity
    00:00 +26°C° 0 mm 2 mps 745 mmHg 92%
    01:00 +26°C° 0 mm 1 mps 744 mmHg 92%
    02:00 +26°C° 0 mm 1 mps 744 mmHg 93%
    03:00 +26°C° 0 mm 1 mps 744 mmHg 94%
    04:00 +26°C° 0 mm 1 mps 744 mmHg 94%
    05:00 +25°C° 0 mm 1 mps 744 mmHg 95%
    06:00 +25°C° 0 mm 1 mps 744 mmHg 95%
    07:00 +27°C° 0 mm 1 mps 745 mmHg 88%
    08:00 +29°C° 0 mm 2 mps 745 mmHg 81%
    09:00 +31°C° 0 mm 2 mps 746 mmHg 73%
    10:00 +31°C° 0 mm 2 mps 745 mmHg 71%
    11:00 +32°C° 0 mm 2 mps 745 mmHg 69%
    12:00 +32°C° 0 mm 1 mps 744 mmHg 66%
    13:00 +32°C° 0.3 mm 1 mps 744 mmHg 66%
    14:00 +32°C° 0.3 mm 2 mps 743 mmHg 65%
    15:00 +32°C° 0.3 mm 2 mps 742 mmHg 64%
    16:00 +31°C° 0.2 mm 2 mps 743 mmHg 71%
    17:00 +30°C° 0.2 mm 2 mps 743 mmHg 78%
    18:00 +28°C° 0.2 mm 2 mps 743 mmHg 85%
    19:00 +28°C° 0 mm 2 mps 744 mmHg 87%
    20:00 +27°C° 0 mm 2 mps 744 mmHg 88%
    21:00 +27°C° 0 mm 2 mps 745 mmHg 90%
    22:00 +27°C° 0 mm 2 mps 745 mmHg 90%
    23:00 +26°C° 0 mm 2 mps 745 mmHg 91%

    16 November, Saturday

    Time Temperature Precipitation Wind Pressure Humidity
    00:00 +26°C° 0 mm 2 mps 744 mmHg 92%
    01:00 +26°C° 0 mm 2 mps 744 mmHg 93%
    02:00 +26°C° 0 mm 2 mps 744 mmHg 94%
    03:00 +26°C° 0 mm 1 mps 743 mmHg 95%
    04:00 +25°C° 0 mm 1 mps 744 mmHg 95%
    05:00 +25°C° 0 mm 1 mps 744 mmHg 96%
    06:00 +25°C° 0 mm 1 mps 744 mmHg 96%
    07:00 +27°C° 0 mm 1 mps 745 mmHg 88%
    08:00 +29°C° 0 mm 2 mps 745 mmHg 80%
    09:00 +31°C° 0 mm 2 mps 746 mmHg 72%
    10:00 +32°C° 0 mm 2 mps 745 mmHg 67%
    11:00 +34°C° 0 mm 2 mps 745 mmHg 62%
    12:00 +34°C° 0 mm 1 mps 744 mmHg 57%
    13:00 +34°C° 0 mm 1 mps 744 mmHg 56%
    14:00 +34°C° 0 mm 1 mps 743 mmHg 55%
    15:00 +34°C° 0 mm 1 mps 742 mmHg 55%
    16:00 +32°C° 0.3 mm 2 mps 743 mmHg 65%
    17:00 +30°C° 0.3 mm 2 mps 743 mmHg 74%
    18:00 +28°C° 0.3 mm 2 mps 743 mmHg 84%
    19:00 +28°C° 0 mm 2 mps 744 mmHg 86%
    20:00 +27°C° 0 mm 2 mps 744 mmHg 88%
    21:00 +27°C° 0 mm 2 mps 745 mmHg 90%
    22:00 +27°C° 0 mm 2 mps 745 mmHg 90%
    23:00 +27°C° 0 mm 2 mps 745 mmHg 91%

    17 November, Sunday

    Time Temperature Precipitation Wind Pressure Humidity
    00:00 +26°C° 0 mm 2 mps 745 mmHg 91%
    01:00 +26°C° 0 mm 2 mps 744 mmHg 92%
    02:00 +26°C° 0 mm 2 mps 744 mmHg 94%
    03:00 +26°C° 0 mm 1 mps 743 mmHg 95%
    04:00 +26°C° 0 mm 1 mps 744 mmHg 95%
    05:00 +25°C° 0 mm 1 mps 744 mmHg 95%
    06:00 +25°C° 0 mm 1 mps 744 mmHg 95%
    07:00 +27°C° 0 mm 1 mps 745 mmHg 87%
    08:00 +29°C° 0 mm 2 mps 745 mmHg 78%
    09:00 +31°C° 0 mm 2 mps 746 mmHg 70%
    10:00 +32°C° 0 mm 2 mps 745 mmHg 65%
    11:00 +34°C° 0 mm 2 mps 745 mmHg 59%
    12:00 +35°C° 0 mm 1 mps 744 mmHg 54%
    13:00 +35°C° 0 mm 1 mps 744 mmHg 52%
    14:00 +35°C° 0 mm 1 mps 743 mmHg 50%
    15:00 +35°C° 0 mm 1 mps 743 mmHg 48%
    16:00 +34°C° 0.1 mm 2 mps 743 mmHg 58%
    17:00 +31°C° 0.1 mm 2 mps 743 mmHg 67%
    18:00 +29°C° 0.1 mm 3 mps 743 mmHg 76%
    19:00 +29°C° 0 mm 3 mps 744 mmHg 80%
    20:00 +28°C° 0 mm 3 mps 745 mmHg 83%
    21:00 +27°C° 0 mm 3 mps 745 mmHg 86%
    22:00 +27°C° 0 mm 2 mps 745 mmHg 88%
    23:00 +27°C° 0 mm 2 mps 745 mmHg 89%
    Show more